EN

Hourly Weather Abuja

Today, 2 December, Wednesday

Time Temperature Precipitation Wind Pressure Humidity
00:00 +25°C° 0 mm 2 mps 709 mmHg 23%
01:00 +25°C° 0 mm 2 mps 709 mmHg 23%
02:00 +25°C° 0 mm 2 mps 709 mmHg 21%
03:00 +25°C° 0 mm 2 mps 709 mmHg 19%
04:00 +24°C° 0 mm 2 mps 709 mmHg 17%
05:00 +24°C° 0 mm 2 mps 709 mmHg 18%
06:00 +24°C° 0 mm 2 mps 709 mmHg 19%
07:00 +23°C° 0 mm 2 mps 709 mmHg 20%
08:00 +26°C° 0 mm 2 mps 710 mmHg 18%
09:00 +28°C° 0 mm 2 mps 711 mmHg 17%
10:00 +31°C° 0 mm 2 mps 711 mmHg 15%
11:00 +32°C° 0 mm 2 mps 711 mmHg 14%
12:00 +35°C° 0 mm 2 mps 710 mmHg 14%
13:00 +37°C° 0 mm 2 mps 710 mmHg 13%
14:00 +37°C° 0 mm 2 mps 709 mmHg 13%
15:00 +36°C° 0 mm 1 mps 708 mmHg 13%
16:00 +36°C° 0 mm 1 mps 708 mmHg 13%
17:00 +34°C° 0 mm 1 mps 708 mmHg 15%
18:00 +31°C° 0 mm 1 mps 708 mmHg 18%
19:00 +26°C° 0 mm 0 mps 708 mmHg 21%
20:00 +28°C° 0 mm 1 mps 708 mmHg 21%
21:00 +27°C° 0 mm 1 mps 709 mmHg 22%
22:00 +26°C° 0 mm 1 mps 709 mmHg 23%
23:00 +26°C° 0 mm 1 mps 709 mmHg 22%

Tomorrow, 3 December, Thursday

Time Temperature Precipitation Wind Pressure Humidity
00:00 +25°C° 0 mm 1 mps 709 mmHg 22%
01:00 +25°C° 0 mm 1 mps 709 mmHg 21%
02:00 +25°C° 0 mm 2 mps 709 mmHg 21%
03:00 +24°C° 0 mm 2 mps 709 mmHg 21%
04:00 +24°C° 0 mm 2 mps 709 mmHg 21%
05:00 +24°C° 0 mm 2 mps 709 mmHg 21%
06:00 +23°C° 0 mm 2 mps 710 mmHg 22%
07:00 +23°C° 0 mm 2 mps 710 mmHg 22%
08:00 +25°C° 0 mm 2 mps 711 mmHg 21%
09:00 +28°C° 0 mm 2 mps 711 mmHg 19%
10:00 +30°C° 0 mm 2 mps 712 mmHg 17%
11:00 +32°C° 0 mm 2 mps 711 mmHg 16%
12:00 +35°C° 0 mm 2 mps 710 mmHg 15%
13:00 +36°C° 0 mm 2 mps 710 mmHg 14%
14:00 +37°C° 0 mm 2 mps 709 mmHg 14%
15:00 +36°C° 0 mm 1 mps 709 mmHg 14%
16:00 +36°C° 0 mm 1 mps 708 mmHg 13%
17:00 +33°C° 0 mm 1 mps 708 mmHg 16%
18:00 +31°C° 0 mm 1 mps 708 mmHg 19%
19:00 +28°C° 0 mm 1 mps 708 mmHg 22%
20:00 +27°C° 0 mm 1 mps 709 mmHg 23%
21:00 +27°C° 0 mm 1 mps 709 mmHg 25%
22:00 +26°C° 0 mm 1 mps 710 mmHg 26%
23:00 +25°C° 0 mm 1 mps 710 mmHg 26%

Day after tomorrow, 4 December, Friday

Time Temperature Precipitation Wind Pressure Humidity
00:00 +25°C° 0 mm 1 mps 709 mmHg 25%
01:00 +24°C° 0 mm 1 mps 709 mmHg 25%
02:00 +24°C° 0 mm 1 mps 709 mmHg 24%
03:00 +24°C° 0 mm 1 mps 709 mmHg 23%
04:00 +24°C° 0 mm 1 mps 709 mmHg 22%
05:00 +23°C° 0 mm 1 mps 709 mmHg 23%
06:00 +23°C° 0 mm 1 mps 710 mmHg 25%
07:00 +22°C° 0 mm 1 mps 710 mmHg 27%
08:00 +25°C° 0 mm 1 mps 711 mmHg 25%
09:00 +28°C° 0 mm 1 mps 711 mmHg 22%
10:00 +31°C° 0 mm 1 mps 712 mmHg 20%
11:00 +32°C° 0 mm 1 mps 711 mmHg 19%
12:00 +34°C° 0 mm 1 mps 711 mmHg 17%
13:00 +37°C° 0 mm 2 mps 710 mmHg 15%
14:00 +37°C° 0 mm 2 mps 710 mmHg 15%
15:00 +36°C° 0 mm 2 mps 709 mmHg 15%
16:00 +36°C° 0 mm 2 mps 708 mmHg 15%
17:00 +34°C° 0 mm 2 mps 708 mmHg 19%
18:00 +31°C° 0 mm 1 mps 708 mmHg 22%
19:00 +28°C° 0 mm 1 mps 708 mmHg 26%
20:00 +27°C° 0 mm 1 mps 709 mmHg 28%
21:00 +25°C° 0 mm 0 mps 709 mmHg 31%
22:00 +24°C° 0 mm 0 mps 710 mmHg 33%
23:00 +23°C° 0 mm 0 mps 709 mmHg 34%

5 December, Saturday

Time Temperature Precipitation Wind Pressure Humidity
00:00 +25°C° 0 mm 1 mps 709 mmHg 35%
01:00 +25°C° 0 mm 1 mps 709 mmHg 36%
02:00 +24°C° 0 mm 1 mps 709 mmHg 37%
03:00 +24°C° 0 mm 1 mps 709 mmHg 39%
04:00 +24°C° 0 mm 1 mps 709 mmHg 40%
05:00 +23°C° 0 mm 1 mps 709 mmHg 42%
06:00 +23°C° 0 mm 1 mps 710 mmHg 45%
07:00 +23°C° 0 mm 1 mps 710 mmHg 48%
08:00 +26°C° 0 mm 1 mps 710 mmHg 45%
09:00 +28°C° 0 mm 1 mps 711 mmHg 43%
10:00 +31°C° 0 mm 1 mps 712 mmHg 41%
11:00 +33°C° 0 mm 1 mps 711 mmHg 35%
12:00 +35°C° 0 mm 1 mps 711 mmHg 29%
13:00 +37°C° 0 mm 1 mps 710 mmHg 22%
14:00 +37°C° 0 mm 1 mps 710 mmHg 21%
15:00 +36°C° 0 mm 1 mps 709 mmHg 20%
16:00 +37°C° 0 mm 2 mps 708 mmHg 19%
17:00 +34°C° 0 mm 1 mps 708 mmHg 21%
18:00 +31°C° 0 mm 1 mps 708 mmHg 24%
19:00 +29°C° 0 mm 1 mps 708 mmHg 27%
20:00 +28°C° 0 mm 1 mps 709 mmHg 28%
21:00 +25°C° 0 mm 0 mps 709 mmHg 29%
22:00 +25°C° 0 mm 0 mps 710 mmHg 31%
23:00 +24°C° 0 mm 0 mps 709 mmHg 31%

6 December, Sunday

Time Temperature Precipitation Wind Pressure Humidity
00:00 +24°C° 0 mm 0 mps 709 mmHg 32%
01:00 +26°C° 0 mm 1 mps 709 mmHg 33%
02:00 +23°C° 0 mm 0 mps 709 mmHg 35%
03:00 +23°C° 0 mm 0 mps 709 mmHg 36%
04:00 +23°C° 0 mm 0 mps 709 mmHg 38%
05:00 +22°C° 0 mm 0 mps 709 mmHg 42%
06:00 +22°C° 0 mm 0 mps 709 mmHg 46%
07:00 +21°C° 0 mm 0 mps 709 mmHg 50%
08:00 +26°C° 0 mm 1 mps 710 mmHg 48%
09:00 +29°C° 0 mm 1 mps 711 mmHg 46%
10:00 +32°C° 0 mm 1 mps 711 mmHg 44%
11:00 +33°C° 0 mm 1 mps 711 mmHg 37%
12:00 +35°C° 0 mm 1 mps 710 mmHg 31%
13:00 +37°C° 0 mm 1 mps 710 mmHg 24%
14:00 +37°C° 0 mm 1 mps 709 mmHg 23%
15:00 +37°C° 0 mm 1 mps 709 mmHg 21%
16:00 +37°C° 0 mm 2 mps 708 mmHg 20%
17:00 +34°C° 0 mm 1 mps 708 mmHg 24%
18:00 +32°C° 0 mm 1 mps 708 mmHg 27%
19:00 +29°C° 0 mm 1 mps 708 mmHg 31%
20:00 +29°C° 0 mm 1 mps 708 mmHg 34%
21:00 +26°C° 0 mm 0 mps 709 mmHg 37%
22:00 +25°C° 0 mm 0 mps 709 mmHg 39%
23:00 +25°C° 0 mm 0 mps 709 mmHg 41%

7 December, Monday

Time Temperature Precipitation Wind Pressure Humidity
00:00 +27°C° 0 mm 1 mps 710 mmHg 42%
01:00 +26°C° 0 mm 1 mps 710 mmHg 43%
02:00 +26°C° 0 mm 1 mps 709 mmHg 47%
03:00 +23°C° 0 mm 0 mps 709 mmHg 51%
04:00 +22°C° 0 mm 0 mps 709 mmHg 55%
05:00 +22°C° 0 mm 0 mps 709 mmHg 60%
06:00 +22°C° 0 mm 0 mps 709 mmHg 65%
07:00 +21°C° 0 mm 0 mps 710 mmHg 70%
08:00 +24°C° 0 mm 0 mps 710 mmHg 63%
09:00 +27°C° 0 mm 0 mps 711 mmHg 56%
10:00 +32°C° 0 mm 1 mps 712 mmHg 48%
11:00 +34°C° 0 mm 1 mps 711 mmHg 40%
12:00 +36°C° 0 mm 1 mps 711 mmHg 32%
13:00 +39°C° 0 mm 1 mps 710 mmHg 23%
14:00 +37°C° 0 mm 1 mps 710 mmHg 21%
15:00 +37°C° 0 mm 1 mps 709 mmHg 19%
16:00 +38°C° 0 mm 2 mps 708 mmHg 16%
17:00 +35°C° 0 mm 1 mps 708 mmHg 19%
18:00 +32°C° 0 mm 1 mps 708 mmHg 22%
19:00 +30°C° 0 mm 1 mps 708 mmHg 24%
20:00 +29°C° 0 mm 1 mps 709 mmHg 27%
21:00 +26°C° 0 mm 0 mps 709 mmHg 29%
22:00 +25°C° 0 mm 0 mps 710 mmHg 31%
23:00 +25°C° 0 mm 0 mps 710 mmHg 32%
Show more